Time,TemperatureF,DewpointF,PressureIn,WindDirection,WindDirectionDegrees,WindSpeedMPH,WindSpeedGustMPH,Humidity,HourlyPrecipIn,Conditions,Clouds,dailyrainin,SoftwareType,DateUTC
2013-03-27 00:01:00,46.0,43.0,29.93,SSW,202,0.0,-999.0,88,-99.99,,,-99.99,,2013-03-27 07:01:00,
2013-03-27 00:11:00,46.0,43.0,29.93,SSW,202,0.0,-999.0,88,-99.99,,,-99.99,,2013-03-27 07:11:00,
2013-03-27 00:22:00,45.0,42.0,29.93,SSW,202,0.0,-999.0,89,-99.99,,,-99.99,,2013-03-27 07:22:00,
2013-03-27 00:32:00,44.0,41.0,29.93,SSW,202,0.0,-999.0,89,-99.99,,,-99.99,,2013-03-27 07:32:00,
2013-03-27 00:42:00,44.0,41.0,29.93,SSW,202,0.0,-999.0,89,-99.99,,,-99.99,,2013-03-27 07:42:00,
2013-03-27 00:53:00,43.0,40.0,29.93,SSW,202,0.0,-999.0,90,-99.99,,,-99.99,,2013-03-27 07:53:00,
2013-03-27 01:02:00,43.0,40.0,29.93,SSW,202,0.0,-999.0,90,-99.99,,,-99.99,,2013-03-27 08:02:00,
2013-03-27 01:11:00,43.0,40.0,29.93,SSW,202,0.0,-999.0,90,-99.99,,,-99.99,,2013-03-27 08:11:00,
2013-03-27 01:21:00,42.0,39.0,29.93,SSW,202,0.0,-999.0,90,-99.99,,,-99.99,,2013-03-27 08:21:00,
2013-03-27 01:32:00,42.0,40.0,29.93,SSW,202,0.0,-999.0,92,-99.99,,,-99.99,,2013-03-27 08:32:00,
2013-03-27 01:42:00,42.0,40.0,29.93,SSW,202,0.0,-999.0,92,-99.99,,,-99.99,,2013-03-27 08:42:00,
2013-03-27 01:52:00,42.0,40.0,29.92,SSW,202,0.0,-999.0,93,-99.99,,,-99.99,,2013-03-27 08:52:00,
2013-03-27 02:01:00,42.0,40.0,29.92,SSW,202,0.0,-999.0,93,-99.99,,,-99.99,,2013-03-27 09:01:00,
2013-03-27 02:11:00,42.0,40.0,29.92,SSW,202,0.0,-999.0,93,-99.99,,,-99.99,,2013-03-27 09:11:00,
2013-03-27 02:21:00,41.0,39.0,29.92,SSW,202,0.0,-999.0,93,-99.99,,,-99.99,,2013-03-27 09:21:00,
2013-03-27 02:32:00,41.0,39.0,29.91,SSW,202,0.0,-999.0,93,-99.99,,,-99.99,,2013-03-27 09:32:00,
2013-03-27 02:42:00,41.0,39.0,29.91,SSW,202,0.0,-999.0,93,-99.99,,,-99.99,,2013-03-27 09:42:00,
2013-03-27 02:52:00,40.0,38.0,29.91,SSW,202,0.0,-999.0,93,-99.99,,,-99.99,,2013-03-27 09:52:00,
2013-03-27 03:02:00,40.0,38.0,29.91,SSW,202,0.0,-999.0,94,-99.99,,,-99.99,,2013-03-27 10:02:00,
2013-03-27 03:12:00,40.0,38.0,29.91,SSW,202,0.0,-999.0,94,-99.99,,,-99.99,,2013-03-27 10:12:00,
2013-03-27 03:22:00,40.0,38.0,29.90,SSW,202,0.0,-999.0,94,-99.99,,,-99.99,,2013-03-27 10:22:00,
2013-03-27 03:32:00,40.0,38.0,29.90,SSW,202,0.0,-999.0,94,-99.99,,,-99.99,,2013-03-27 10:32:00,
2013-03-27 03:42:00,40.0,38.0,29.90,SSW,202,0.0,-999.0,94,-99.99,,,-99.99,,2013-03-27 10:42:00,
2013-03-27 03:52:00,40.0,39.0,29.89,SSW,202,0.0,-999.0,95,-99.99,,,-99.99,,2013-03-27 10:52:00,
2013-03-27 04:02:00,40.0,39.0,29.90,SSW,202,0.0,-999.0,95,-99.99,,,-99.99,,2013-03-27 11:02:00,
2013-03-27 04:11:00,40.0,39.0,29.90,SSW,202,0.0,-999.0,95,-99.99,,,-99.99,,2013-03-27 11:11:00,
2013-03-27 04:22:00,40.0,39.0,29.90,SSW,202,0.0,-999.0,96,-99.99,,,-99.99,,2013-03-27 11:22:00,
2013-03-27 04:32:00,41.0,40.0,29.90,SSW,202,0.0,-999.0,96,-99.99,,,-99.99,,2013-03-27 11:32:00,
2013-03-27 04:42:00,41.0,40.0,29.90,SSW,202,0.0,-999.0,96,-99.99,,,-99.99,,2013-03-27 11:42:00,
2013-03-27 04:52:00,41.0,40.0,29.89,SSW,202,0.0,-999.0,96,-99.99,,,-99.99,,2013-03-27 11:52:00,
2013-03-27 05:02:00,41.0,40.0,29.89,SSW,202,0.0,-999.0,96,-99.99,,,-99.99,,2013-03-27 12:02:00,
2013-03-27 05:11:00,41.0,40.0,29.89,SSW,202,0.0,-999.0,96,-99.99,,,-99.99,,2013-03-27 12:11:00,
2013-03-27 05:22:00,42.0,41.0,29.89,SSW,202,0.0,-999.0,96,-99.99,,,-99.99,,2013-03-27 12:22:00,
2013-03-27 05:32:00,42.0,41.0,29.89,SSW,202,0.0,-999.0,96,-99.99,,,-99.99,,2013-03-27 12:32:00,
2013-03-27 05:42:00,42.0,41.0,29.89,SSW,202,0.0,-999.0,96,-99.99,,,-99.99,,2013-03-27 12:42:00,
2013-03-27 05:52:00,42.0,41.0,29.89,SSW,202,0.0,-999.0,96,-99.99,,,-99.99,,2013-03-27 12:52:00,
2013-03-27 06:01:00,42.0,41.0,29.89,SSW,202,0.0,-999.0,96,-99.99,,,-99.99,,2013-03-27 13:01:00,
2013-03-27 06:11:00,42.0,41.0,29.89,SSW,202,0.0,-999.0,96,-99.99,,,-99.99,,2013-03-27 13:11:00,
2013-03-27 06:21:00,42.0,41.0,29.90,SSW,202,0.0,-999.0,96,-99.99,,,-99.99,,2013-03-27 13:21:00,
2013-03-27 06:32:00,43.0,42.0,29.90,SSW,202,0.0,-999.0,96,-99.99,,,-99.99,,2013-03-27 13:32:00,
2013-03-27 06:42:00,43.0,42.0,29.90,SSW,202,0.0,-999.0,96,-99.99,,,-99.99,,2013-03-27 13:42:00,
2013-03-27 06:53:00,43.0,42.0,29.90,SSW,202,0.0,-999.0,96,-99.99,,,-99.99,,2013-03-27 13:53:00,
2013-03-27 07:01:00,43.0,42.0,29.89,SSW,202,0.0,-999.0,96,-99.99,,,-99.99,,2013-03-27 14:01:00,
2013-03-27 07:11:00,43.0,42.0,29.89,SSW,202,0.0,-999.0,96,-99.99,,,-99.99,,2013-03-27 14:11:00,
2013-03-27 07:21:00,43.0,42.0,29.90,SSW,202,0.0,-999.0,96,-99.99,,,-99.99,,2013-03-27 14:21:00,
2013-03-27 07:31:00,43.0,42.0,29.90,SSW,202,0.0,-999.0,96,-99.99,,,-99.99,,2013-03-27 14:31:00,
2013-03-27 07:41:00,43.0,42.0,29.90,SSW,202,0.0,-999.0,96,-99.99,,,-99.99,,2013-03-27 14:41:00,
2013-03-27 07:52:00,43.0,42.0,29.90,SSW,202,0.0,-999.0,97,-99.99,,,-99.99,,2013-03-27 14:52:00,
2013-03-27 08:01:00,44.0,43.0,29.90,SSW,202,0.0,-999.0,97,-99.99,,,-99.99,,2013-03-27 15:01:00,
2013-03-27 08:11:00,44.0,43.0,29.90,SSW,202,0.0,-999.0,97,-99.99,,,-99.99,,2013-03-27 15:11:00,
2013-03-27 08:22:00,44.0,43.0,29.91,SSW,202,0.0,-999.0,97,-99.99,,,-99.99,,2013-03-27 15:22:00,
2013-03-27 08:32:00,44.0,43.0,29.91,SSE,159,0.0,-999.0,97,-99.99,,,-99.99,,2013-03-27 15:32:00,
2013-03-27 08:42:00,44.0,43.0,29.91,SSE,159,0.0,-999.0,97,-99.99,,,-99.99,,2013-03-27 15:42:00,
2013-03-27 08:52:00,45.0,44.0,29.91,SSE,159,0.0,-999.0,97,-99.99,,,-99.99,,2013-03-27 15:52:00,
2013-03-27 09:02:00,45.0,44.0,29.91,SSE,159,0.0,-999.0,97,-99.99,,,-99.99,,2013-03-27 16:02:00,
2013-03-27 09:11:00,46.0,45.0,29.91,SSE,159,0.0,-999.0,97,-99.99,,,-99.99,,2013-03-27 16:11:00,
2013-03-27 09:12:00,45.0,44.0,29.91,SSE,159,0.0,-999.0,97,-99.99,,,-99.99,,2013-03-27 16:12:00,
2013-03-27 09:22:00,46.0,45.0,29.91,SSE,159,0.0,-999.0,97,-99.99,,,-99.99,,2013-03-27 16:22:00,
2013-03-27 09:32:00,46.0,45.0,29.91,SSE,159,0.0,-999.0,97,-99.99,,,-99.99,,2013-03-27 16:32:00,
2013-03-27 09:42:00,46.0,45.0,29.91,SSE,159,0.0,-999.0,97,-99.99,,,-99.99,,2013-03-27 16:42:00,
2013-03-27 09:52:00,46.0,45.0,29.91,SSE,159,0.0,-999.0,97,-99.99,,,-99.99,,2013-03-27 16:52:00,
2013-03-27 10:02:00,46.0,45.0,29.91,SSE,159,0.0,-999.0,97,-99.99,,,-99.99,,2013-03-27 17:02:00,
2013-03-27 10:22:00,48.0,47.0,29.91,NE,55,0.0,-999.0,97,-99.99,,,-99.99,,2013-03-27 17:22:00,
2013-03-27 10:32:00,48.0,47.0,29.91,NE,55,0.0,-999.0,97,-99.99,,,-99.99,,2013-03-27 17:32:00,
2013-03-27 10:44:00,48.0,47.0,29.91,NE,55,0.0,-999.0,97,-99.99,,,-99.99,,2013-03-27 17:44:00,
2013-03-27 10:52:00,49.0,48.0,29.91,ENE,59,1.0,-999.0,95,-99.99,,,-99.99,,2013-03-27 17:52:00,
2013-03-27 11:02:00,50.0,48.0,29.91,NW,304,0.0,-999.0,92,-99.99,,,-99.99,,2013-03-27 18:02:00,
2013-03-27 11:11:00,50.0,48.0,29.91,NW,304,0.0,-999.0,92,-99.99,,,-99.99,,2013-03-27 18:11:00,
2013-03-27 11:22:00,51.0,48.0,29.91,NW,306,0.0,-999.0,88,-99.99,,,-99.99,,2013-03-27 18:22:00,
2013-03-27 11:32:00,52.0,47.0,29.92,NW,306,0.0,-999.0,84,-99.99,,,-99.99,,2013-03-27 18:32:00,
2013-03-27 11:42:00,52.0,47.0,29.92,NW,306,0.0,-999.0,84,-99.99,,,-99.99,,2013-03-27 18:42:00,
2013-03-27 11:53:00,54.0,47.0,29.91,ENE,76,0.0,-999.0,78,-99.99,,,-99.99,,2013-03-27 18:53:00,
2013-03-27 12:01:00,55.0,48.0,29.91,SSE,168,0.0,-999.0,78,-99.99,,,-99.99,,2013-03-27 19:01:00,
2013-03-27 12:11:00,55.0,48.0,29.91,SSE,168,0.0,-999.0,78,-99.99,,,-99.99,,2013-03-27 19:11:00,
2013-03-27 12:21:00,56.0,48.0,29.91,ESE,109,1.0,-999.0,75,-99.99,,,-99.99,,2013-03-27 19:21:00,
2013-03-27 12:32:00,57.0,48.0,29.91,ESE,123,1.0,-999.0,72,-99.99,,,-99.99,,2013-03-27 19:32:00,
2013-03-27 12:42:00,57.0,48.0,29.91,ESE,123,1.0,-999.0,72,-99.99,,,-99.99,,2013-03-27 19:42:00,
2013-03-27 12:52:00,60.0,49.0,29.91,South,171,1.0,-999.0,66,-99.99,,,-99.99,,2013-03-27 19:52:00,
2013-03-27 13:02:00,60.0,48.0,29.90,ENE,72,2.0,-999.0,64,-99.99,,,-99.99,,2013-03-27 20:02:00,
2013-03-27 13:11:00,60.0,48.0,29.90,ENE,72,2.0,-999.0,64,-99.99,,,-99.99,,2013-03-27 20:11:00,
2013-03-27 13:22:00,60.0,46.0,29.91,South,182,2.0,-999.0,60,-99.99,,,-99.99,,2013-03-27 20:22:00,
2013-03-27 13:31:00,61.0,47.0,29.91,SSE,152,2.0,-999.0,60,-99.99,,,-99.99,,2013-03-27 20:31:00,
2013-03-27 13:42:00,61.0,47.0,29.91,SSE,152,2.0,-999.0,60,-99.99,,,-99.99,,2013-03-27 20:42:00,
2013-03-27 13:52:00,62.0,47.0,29.90,SSW,197,4.0,-999.0,58,-99.99,,,-99.99,,2013-03-27 20:52:00,
2013-03-27 14:01:00,62.0,48.0,29.90,SW,236,3.0,-999.0,60,-99.99,,,-99.99,,2013-03-27 21:01:00,
2013-03-27 14:12:00,62.0,48.0,29.90,SW,236,3.0,-999.0,60,-99.99,,,-99.99,,2013-03-27 21:12:00,
2013-03-27 14:22:00,61.0,50.0,29.90,SW,215,3.0,-999.0,66,-99.99,,,-99.99,,2013-03-27 21:22:00,
2013-03-27 14:32:00,61.0,48.0,29.89,SW,219,2.0,-999.0,62,-99.99,,,-99.99,,2013-03-27 21:32:00,
2013-03-27 14:42:00,61.0,48.0,29.89,SW,219,2.0,-999.0,62,-99.99,,,-99.99,,2013-03-27 21:42:00,
2013-03-27 14:52:00,61.0,50.0,29.89,SSE,158,2.0,-999.0,66,-99.99,,,-99.99,,2013-03-27 21:52:00,
2013-03-27 15:02:00,61.0,50.0,29.89,SSE,154,2.0,-999.0,66,-99.99,,,-99.99,,2013-03-27 22:02:00,
2013-03-27 15:12:00,61.0,50.0,29.89,SSE,154,2.0,-999.0,66,-99.99,,,-99.99,,2013-03-27 22:12:00,
2013-03-27 15:23:00,60.0,48.0,29.88,SSW,194,1.0,-999.0,65,-99.99,,,-99.99,,2013-03-27 22:23:00,
2013-03-27 15:32:00,61.0,48.0,29.88,SW,220,2.0,-999.0,62,-99.99,,,-99.99,,2013-03-27 22:32:00,
2013-03-27 15:42:00,61.0,48.0,29.88,SW,220,2.0,-999.0,62,-99.99,,,-99.99,,2013-03-27 22:42:00,
2013-03-27 15:52:00,64.0,49.0,29.87,SSW,207,2.0,-999.0,58,-99.99,,,-99.99,,2013-03-27 22:52:00,
2013-03-27 16:02:00,65.0,49.0,29.87,SE,139,3.0,-999.0,57,-99.99,,,-99.99,,2013-03-27 23:02:00,
2013-03-27 16:11:00,65.0,49.0,29.87,SE,139,3.0,-999.0,57,-99.99,,,-99.99,,2013-03-27 23:11:00,
2013-03-27 16:21:00,65.0,49.0,29.87,South,179,3.0,-999.0,56,-99.99,,,-99.99,,2013-03-27 23:21:00,
2013-03-27 16:32:00,64.0,49.0,29.87,SW,223,1.0,-999.0,59,-99.99,,,-99.99,,2013-03-27 23:32:00,
2013-03-27 16:42:00,64.0,49.0,29.87,SW,223,1.0,-999.0,59,-99.99,,,-99.99,,2013-03-27 23:42:00,
2013-03-27 16:52:00,63.0,50.0,29.88,WNW,292,1.0,-999.0,62,-99.99,,,-99.99,,2013-03-27 23:52:00,
2013-03-27 17:01:00,61.0,53.0,29.89,WSW,245,2.0,-999.0,76,-99.99,,,-99.99,,2013-03-28 00:01:00,
2013-03-27 17:11:00,61.0,53.0,29.89,WSW,245,2.0,-999.0,76,-99.99,,,-99.99,,2013-03-28 00:11:00,
2013-03-27 17:22:00,58.0,54.0,29.89,NW,305,0.0,-999.0,85,-99.99,,,-99.99,,2013-03-28 00:22:00,
2013-03-27 17:31:00,58.0,54.0,29.89,South,180,0.0,-999.0,86,-99.99,,,-99.99,,2013-03-28 00:31:00,
2013-03-27 17:42:00,58.0,54.0,29.89,South,180,0.0,-999.0,86,-99.99,,,-99.99,,2013-03-28 00:42:00,
2013-03-27 17:52:00,58.0,53.0,29.89,NW,320,1.0,-999.0,84,-99.99,,,-99.99,,2013-03-28 00:52:00,
2013-03-27 18:01:00,57.0,53.0,29.89,NW,304,1.0,-999.0,85,-99.99,,,-99.99,,2013-03-28 01:01:00,
2013-03-27 18:11:00,57.0,53.0,29.89,NW,304,1.0,-999.0,85,-99.99,,,-99.99,,2013-03-28 01:11:00,
2013-03-27 18:21:00,57.0,53.0,29.90,WNW,295,1.0,-999.0,85,-99.99,,,-99.99,,2013-03-28 01:21:00,
2013-03-27 18:32:00,57.0,52.0,29.90,NW,308,1.0,-999.0,84,-99.99,,,-99.99,,2013-03-28 01:32:00,
2013-03-27 18:42:00,57.0,52.0,29.90,NW,308,1.0,-999.0,84,-99.99,,,-99.99,,2013-03-28 01:42:00,
2013-03-27 18:52:00,56.0,51.0,29.90,NW,317,2.0,-999.0,83,-99.99,,,-99.99,,2013-03-28 01:52:00,
2013-03-27 19:02:00,56.0,51.0,29.91,WSW,254,1.0,-999.0,83,-99.99,,,-99.99,,2013-03-28 02:02:00,
2013-03-27 19:11:00,56.0,51.0,29.91,WSW,254,1.0,-999.0,83,-99.99,,,-99.99,,2013-03-28 02:11:00,
2013-03-27 19:22:00,55.0,50.0,29.91,West,267,1.0,-999.0,83,-99.99,,,-99.99,,2013-03-28 02:22:00,
2013-03-27 19:31:00,55.0,50.0,29.91,NW,307,1.0,-999.0,84,-99.99,,,-99.99,,2013-03-28 02:31:00,
2013-03-27 19:42:00,55.0,50.0,29.91,NW,307,1.0,-999.0,84,-99.99,,,-99.99,,2013-03-28 02:42:00,
2013-03-27 19:52:00,55.0,50.0,29.91,NW,307,1.0,-999.0,84,-99.99,,,-99.99,,2013-03-28 02:52:00,
2013-03-27 20:02:00,54.0,50.0,29.92,WNW,292,0.0,-999.0,86,-99.99,,,-99.99,,2013-03-28 03:02:00,
2013-03-27 20:11:00,54.0,50.0,29.92,WNW,292,0.0,-999.0,86,-99.99,,,-99.99,,2013-03-28 03:11:00,
2013-03-27 20:22:00,53.0,49.0,29.92,West,270,0.0,-999.0,87,-99.99,,,-99.99,,2013-03-28 03:22:00,
2013-03-27 20:32:00,52.0,48.0,29.93,West,270,0.0,-999.0,87,-99.99,,,-99.99,,2013-03-28 03:32:00,
2013-03-27 20:42:00,52.0,48.0,29.93,West,270,0.0,-999.0,87,-99.99,,,-99.99,,2013-03-28 03:42:00,
2013-03-27 20:52:00,51.0,47.0,29.93,West,270,0.0,-999.0,87,-99.99,,,-99.99,,2013-03-28 03:52:00,
2013-03-27 21:02:00,51.0,48.0,29.94,West,270,0.0,-999.0,88,-99.99,,,-99.99,,2013-03-28 04:02:00,
2013-03-27 21:12:00,51.0,48.0,29.94,West,270,0.0,-999.0,88,-99.99,,,-99.99,,2013-03-28 04:12:00,
2013-03-27 21:22:00,50.0,47.0,29.94,West,270,0.0,-999.0,89,-99.99,,,-99.99,,2013-03-28 04:22:00,
2013-03-27 21:32:00,49.0,46.0,29.95,West,270,0.0,-999.0,91,-99.99,,,-99.99,,2013-03-28 04:32:00,
2013-03-27 21:42:00,49.0,46.0,29.95,West,270,0.0,-999.0,91,-99.99,,,-99.99,,2013-03-28 04:42:00,
2013-03-27 21:52:00,48.0,45.0,29.95,West,270,0.0,-999.0,91,-99.99,,,-99.99,,2013-03-28 04:52:00,
2013-03-27 22:02:00,48.0,45.0,29.96,West,270,0.0,-999.0,91,-99.99,,,-99.99,,2013-03-28 05:02:00,
2013-03-27 22:12:00,48.0,45.0,29.96,West,270,0.0,-999.0,91,-99.99,,,-99.99,,2013-03-28 05:12:00,
2013-03-27 22:22:00,47.0,45.0,29.96,West,270,0.0,-999.0,92,-99.99,,,-99.99,,2013-03-28 05:22:00,
2013-03-27 22:31:00,47.0,45.0,29.96,West,270,0.0,-999.0,93,-99.99,,,-99.99,,2013-03-28 05:31:00,
2013-03-27 22:42:00,47.0,45.0,29.96,West,270,0.0,-999.0,93,-99.99,,,-99.99,,2013-03-28 05:42:00,
2013-03-27 22:52:00,46.0,44.0,29.96,ESE,119,0.0,-999.0,94,-99.99,,,-99.99,,2013-03-28 05:52:00,
2013-03-27 23:01:00,46.0,44.0,29.96,ESE,119,0.0,-999.0,94,-99.99,,,-99.99,,2013-03-28 06:01:00,
2013-03-27 23:12:00,46.0,44.0,29.96,ESE,119,0.0,-999.0,94,-99.99,,,-99.99,,2013-03-28 06:12:00,
2013-03-27 23:22:00,46.0,44.0,29.97,ESE,119,0.0,-999.0,94,-99.99,,,-99.99,,2013-03-28 06:22:00,
2013-03-27 23:31:00,46.0,44.0,29.96,ESE,119,0.0,-999.0,94,-99.99,,,-99.99,,2013-03-28 06:31:00,
2013-03-27 23:41:00,46.0,44.0,29.96,ESE,119,0.0,-999.0,94,-99.99,,,-99.99,,2013-03-28 06:41:00,
2013-03-27 23:52:00,46.0,45.0,29.96,North,5,0.0,-999.0,95,-99.99,,,-99.99,,2013-03-28 06:52:00,